Hourly Weather Ruston

Today, 20 April, Tuesday

Time Temperature Precipitation Wind Pressure Humidity
00:00 +12°C° 0 mm 1 mps 754 mmHg 78%
01:00 +11°C° 0 mm 1 mps 753 mmHg 79%
02:00 +11°C° 0 mm 1 mps 753 mmHg 80%
03:00 +11°C° 0 mm 1 mps 753 mmHg 80%
04:00 +11°C° 0 mm 1 mps 753 mmHg 81%
05:00 +10°C° 0 mm 1 mps 753 mmHg 82%
06:00 +10°C° 0 mm 1 mps 754 mmHg 83%
07:00 +13°C° 0 mm 1 mps 754 mmHg 73%
08:00 +16°C° 0 mm 2 mps 754 mmHg 63%
09:00 +19°C° 0 mm 2 mps 754 mmHg 54%
10:00 +20°C° 0 mm 2 mps 754 mmHg 48%
11:00 +22°C° 0 mm 3 mps 754 mmHg 43%
12:00 +24°C° 0 mm 3 mps 753 mmHg 37%
13:00 +25°C° 0 mm 3 mps 753 mmHg 37%
14:00 +25°C° 0 mm 4 mps 753 mmHg 36%
15:00 +25°C° 0 mm 4 mps 752 mmHg 35%
16:00 +23°C° 0 mm 4 mps 752 mmHg 45%
17:00 +21°C° 0 mm 4 mps 753 mmHg 54%
18:00 +20°C° 0 mm 4 mps 753 mmHg 64%
19:00 +17°C° 0 mm 4 mps 754 mmHg 63%
20:00 +14°C° 0 mm 5 mps 756 mmHg 62%
21:00 +12°C° 0 mm 5 mps 757 mmHg 62%
22:00 +9°C° 0 mm 5 mps 758 mmHg 64%
23:00 +7°C° 0 mm 5 mps 758 mmHg 67%

Tomorrow, 21 April, Wednesday

Time Temperature Precipitation Wind Pressure Humidity
00:00 +6°C° 0 mm 4 mps 759 mmHg 69%
01:00 +5°C° 0 mm 4 mps 759 mmHg 71%
02:00 +4°C° 0 mm 4 mps 759 mmHg 73%
03:00 +3°C° 0 mm 3 mps 760 mmHg 75%
04:00 +2°C° 0 mm 3 mps 760 mmHg 76%
05:00 +3°C° 0 mm 2 mps 760 mmHg 78%
06:00 +2°C° 0 mm 2 mps 761 mmHg 80%
07:00 +3°C° 0 mm 3 mps 761 mmHg 68%
08:00 +7°C° 0 mm 3 mps 762 mmHg 56%
09:00 +9°C° 0 mm 3 mps 762 mmHg 45%
10:00 +11°C° 0 mm 3 mps 762 mmHg 40%
11:00 +12°C° 0 mm 3 mps 761 mmHg 36%
12:00 +14°C° 0 mm 3 mps 761 mmHg 32%
13:00 +16°C° 0 mm 2 mps 760 mmHg 31%
14:00 +17°C° 0 mm 2 mps 760 mmHg 31%
15:00 +17°C° 0 mm 2 mps 759 mmHg 30%
16:00 +16°C° 0 mm 2 mps 759 mmHg 38%
17:00 +15°C° 0 mm 2 mps 759 mmHg 47%
18:00 +14°C° 0 mm 1 mps 759 mmHg 55%
19:00 +12°C° 0 mm 2 mps 759 mmHg 61%
20:00 +9°C° 0 mm 2 mps 759 mmHg 66%
21:00 +7°C° 0 mm 2 mps 759 mmHg 71%
22:00 +7°C° 0 mm 2 mps 759 mmHg 70%
23:00 +7°C° 0 mm 1 mps 759 mmHg 70%

Day after tomorrow, 22 April, Thursday

Time Temperature Precipitation Wind Pressure Humidity
00:00 +7°C° 0 mm 1 mps 759 mmHg 69%
01:00 +7°C° 0 mm 1 mps 759 mmHg 69%
02:00 +7°C° 0 mm 1 mps 759 mmHg 69%
03:00 +7°C° 0 mm 1 mps 759 mmHg 69%
04:00 +7°C° 0 mm 1 mps 759 mmHg 70%
05:00 +6°C° 0 mm 1 mps 759 mmHg 72%
06:00 +5°C° 0 mm 2 mps 760 mmHg 73%
07:00 +8°C° 0 mm 2 mps 760 mmHg 64%
08:00 +12°C° 0 mm 2 mps 761 mmHg 54%
09:00 +13°C° 0 mm 3 mps 761 mmHg 45%
10:00 +16°C° 0 mm 3 mps 760 mmHg 43%
11:00 +17°C° 0 mm 3 mps 760 mmHg 40%
12:00 +19°C° 0 mm 3 mps 759 mmHg 38%
13:00 +19°C° 0 mm 3 mps 759 mmHg 39%
14:00 +20°C° 0 mm 3 mps 758 mmHg 39%
15:00 +20°C° 0 mm 3 mps 757 mmHg 40%
16:00 +19°C° 0 mm 3 mps 757 mmHg 48%
17:00 +17°C° 0 mm 3 mps 757 mmHg 55%
18:00 +16°C° 0 mm 2 mps 757 mmHg 63%
19:00 +15°C° 0 mm 2 mps 757 mmHg 67%
20:00 +14°C° 0 mm 2 mps 757 mmHg 72%
21:00 +12°C° 0 mm 2 mps 757 mmHg 77%
22:00 +12°C° 0 mm 2 mps 757 mmHg 76%
23:00 +13°C° 0 mm 2 mps 757 mmHg 75%

23 April, Friday

Time Temperature Precipitation Wind Pressure Humidity
00:00 +13°C° 0 mm 2 mps 756 mmHg 74%
01:00 +13°C° 0 mm 2 mps 756 mmHg 75%
02:00 +13°C° 0 mm 2 mps 756 mmHg 75%
03:00 +13°C° 0 mm 2 mps 755 mmHg 76%
04:00 +13°C° 0 mm 2 mps 755 mmHg 77%
05:00 +13°C° 0 mm 2 mps 755 mmHg 77%
06:00 +13°C° 0 mm 2 mps 756 mmHg 78%
07:00 +13°C° 0 mm 2 mps 755 mmHg 76%
08:00 +13°C° 0 mm 3 mps 755 mmHg 74%
09:00 +14°C° 0 mm 3 mps 755 mmHg 72%
10:00 +14°C° 0.1 mm 3 mps 755 mmHg 74%
11:00 +16°C° 0.1 mm 3 mps 754 mmHg 77%
12:00 +16°C° 0.1 mm 3 mps 754 mmHg 79%
13:00 +16°C° 0.8 mm 3 mps 753 mmHg 84%
14:00 +15°C° 0.8 mm 4 mps 752 mmHg 89%
15:00 +14°C° 0.8 mm 4 mps 751 mmHg 95%
16:00 +14°C° 8.4 mm 4 mps 750 mmHg 96%
17:00 +14°C° 8.4 mm 4 mps 750 mmHg 97%
18:00 +14°C° 8.4 mm 4 mps 749 mmHg 98%
19:00 +14°C° 5.4 mm 4 mps 749 mmHg 98%
20:00 +14°C° 5.4 mm 3 mps 749 mmHg 99%
21:00 +14°C° 5.4 mm 3 mps 749 mmHg 99%
22:00 +14°C° 4.1 mm 4 mps 748 mmHg 98%
23:00 +14°C° 4.1 mm 4 mps 748 mmHg 98%

24 April, Saturday

Time Temperature Precipitation Wind Pressure Humidity
00:00 +14°C° 4.1 mm 5 mps 747 mmHg 98%
01:00 +14°C° 12.7 mm 5 mps 747 mmHg 98%
02:00 +14°C° 12.7 mm 5 mps 747 mmHg 98%
03:00 +14°C° 12.7 mm 5 mps 746 mmHg 98%
04:00 +14°C° 0 mm 4 mps 747 mmHg 98%
05:00 +13°C° 0 mm 3 mps 747 mmHg 98%
06:00 +14°C° 0 mm 1 mps 748 mmHg 98%
07:00 +16°C° 0.1 mm 2 mps 748 mmHg 94%
08:00 +18°C° 0.1 mm 2 mps 748 mmHg 90%
09:00 +20°C° 0.1 mm 3 mps 748 mmHg 85%
10:00 +21°C° 0.1 mm 2 mps 749 mmHg 81%
11:00 +23°C° 0.1 mm 2 mps 749 mmHg 78%
12:00 +24°C° 0.1 mm 1 mps 749 mmHg 74%
13:00 +24°C° 0.1 mm 2 mps 749 mmHg 76%
14:00 +23°C° 0.1 mm 2 mps 749 mmHg 77%
15:00 +22°C° 0.1 mm 3 mps 749 mmHg 79%
16:00 +22°C° 0 mm 3 mps 749 mmHg 81%
17:00 +21°C° 0 mm 3 mps 750 mmHg 82%
18:00 +20°C° 0 mm 2 mps 750 mmHg 84%
19:00 +20°C° 0 mm 2 mps 751 mmHg 85%
20:00 +19°C° 0 mm 2 mps 751 mmHg 86%
21:00 +18°C° 0 mm 2 mps 752 mmHg 88%
22:00 +18°C° 0 mm 2 mps 753 mmHg 87%
23:00 +18°C° 0 mm 2 mps 753 mmHg 86%

25 April, Sunday

Time Temperature Precipitation Wind Pressure Humidity
00:00 +18°C° 0 mm 2 mps 753 mmHg 85%
01:00 +17°C° 0 mm 2 mps 754 mmHg 87%
02:00 +16°C° 0 mm 2 mps 754 mmHg 90%
03:00 +15°C° 0 mm 2 mps 754 mmHg 93%
04:00 +14°C° 0 mm 2 mps 755 mmHg 94%
05:00 +13°C° 0 mm 2 mps 755 mmHg 96%
06:00 +12°C° 0 mm 2 mps 755 mmHg 97%
07:00 +15°C° 0 mm 2 mps 756 mmHg 87%
08:00 +17°C° 0 mm 3 mps 756 mmHg 77%
09:00 +19°C° 0 mm 3 mps 756 mmHg 67%
10:00 +20°C° 0 mm 3 mps 756 mmHg 62%
11:00 +22°C° 0 mm 3 mps 756 mmHg 58%
12:00 +24°C° 0 mm 3 mps 756 mmHg 53%
13:00 +25°C° 0 mm 2 mps 755 mmHg 52%
14:00 +25°C° 0 mm 2 mps 755 mmHg 51%
15:00 +26°C° 0 mm 2 mps 754 mmHg 50%
16:00 +24°C° 0 mm 2 mps 755 mmHg 59%
17:00 +23°C° 0 mm 2 mps 755 mmHg 67%
18:00 +21°C° 0 mm 2 mps 755 mmHg 75%
19:00 +19°C° 0 mm 2 mps 755 mmHg 80%
20:00 +18°C° 0 mm 2 mps 755 mmHg 85%
21:00 +16°C° 0 mm 2 mps 755 mmHg 90%
22:00 +16°C° 0 mm 2 mps 755 mmHg 92%
23:00 +15°C° 0 mm 2 mps 755 mmHg 94%
Show more